Weather History for Meacham, OR

Change the Weather History Date:

Sunday, December 9, 2012

  Actual Average Record
Temperature  
Mean Temperature 26 °F -  
Max Temperature 33 °F 34 °F 45 °F (2004)
Min Temperature 19 °F 22 °F -11 °F (2013)
Degree Days  
Heating Degree Days 39    
Moisture  
Dew Point 26 °F    
Average Humidity 93    
Maximum Humidity 100    
Minimum Humidity 80    
Precipitation  
Precipitation 0.16 in - - ()
Sea Level Pressure  
Sea Level Pressure 30.26 in    
Wind  
Wind Speed 0 mph (North)    
Max Wind Speed 4 mph    
Max Gust Speed -    
Visibility 5 miles    
Events Fog , Rain , Snow    
Averages and records for this station are not official NWS values.
T = Trace of Precipitation, MM = Missing Value Source: NWS Daily Summary

Daily Weather History Graph

Daily Weather History Graph

Search for Another Location

Airport:

Trip Planner

Search our weather history database for the weather conditions in past years. The results will help you decide how hot, cold, wet, or windy it might be!

Date:

Astronomy

Dec. 09, 2012 Rise Set
Actual Time 7:22 AM PST 4:10 PM PST
Civil Twilight 6:48 AM PST 4:44 PM PST
Nautical Twilight 6:11 AM PST 5:21 PM PST
Astronomical Twilight 5:35 AM PST 5:57 PM PST
Moon 2:51 AM PST (12/9) 1:27 PM PST (12/9)
Length of Visible Light 9h 55m
Length of Day
8h 47m
Waning Crescent, 17% of the Moon is Illuminated
Dec 9
Waning Crescent
Dec 13
New
Dec 19
First Quarter
Dec 28
Full
Jan 4
Last Quarter

Hourly Weather History & Observations

Time (PST) Temp. Windchill Dew Point Humidity Pressure Visibility Wind Dir Wind Speed Gust Speed Precip Events Conditions
12:16 AM 23.0 °F - 21.2 °F 93% 30.20 in 10.0 mi Calm Calm - N/A   Overcast
12:31 AM 23.0 °F - 21.2 °F 93% 30.20 in 10.0 mi Calm Calm - N/A   Overcast
12:56 AM 23.0 °F - 21.9 °F 96% 30.31 in 10.0 mi Calm Calm - N/A   Overcast
1:39 AM 23.0 °F - 21.2 °F 93% 30.20 in 10.0 mi Calm Calm - N/A   Partly Cloudy
2:01 AM 23.0 °F - 21.2 °F 93% 30.21 in 10.0 mi Calm Calm - N/A   Mostly Cloudy
2:08 AM 23.0 °F - 21.2 °F 93% 30.22 in 10.0 mi Calm Calm - N/A   Mostly Cloudy
2:18 AM 23.0 °F - 21.2 °F 93% 30.23 in 10.0 mi Calm Calm - N/A   Overcast
2:56 AM 23.0 °F - 21.0 °F 92% 30.34 in 10.0 mi Calm Calm - N/A   Overcast
3:56 AM 23.0 °F - 21.0 °F 92% 30.35 in 10.0 mi Calm Calm - N/A   Mostly Cloudy
4:14 AM 23.0 °F - 21.2 °F 93% 30.24 in 10.0 mi Calm Calm - N/A   Partly Cloudy
4:56 AM 21.9 °F - 19.9 °F 92% 30.36 in 10.0 mi Calm Calm - N/A   Clear
5:56 AM 21.0 °F - 19.0 °F 92% 30.38 in 10.0 mi Calm Calm - N/A   Clear
6:56 AM 19.9 °F - 18.0 °F 92% 30.41 in 10.0 mi Calm Calm - N/A   Clear
7:56 AM 21.0 °F - 19.0 °F 92% 30.40 in 10.0 mi Calm Calm - N/A   Mostly Cloudy
8:56 AM 23.0 °F - 21.0 °F 92% 30.41 in 10.0 mi Calm Calm - N/A   Overcast
9:56 AM 27.0 °F - 23.0 °F 85% 30.40 in 10.0 mi Calm Calm - N/A   Overcast
10:56 AM 28.9 °F - 24.1 °F 82% 30.39 in 10.0 mi Calm Calm - N/A   Overcast
11:56 AM 28.9 °F - 25.0 °F 85% 30.38 in 7.0 mi Calm Calm - 0.00 in Snow Light Snow
12:32 PM 30.2 °F - 24.8 °F 80% 30.28 in 1.8 mi Calm Calm - 0.00 in Snow Light Snow
12:56 PM 28.9 °F - 26.1 °F 89% 30.38 in 1.0 mi Calm Calm - 0.01 in Snow Light Snow
1:14 PM 28.4 °F - 26.6 °F 93% 30.27 in 3.0 mi Calm Calm - 0.00 in Snow Light Snow
1:21 PM 28.4 °F - 26.6 °F 93% 30.26 in 4.0 mi Calm Calm - 0.00 in Snow Light Snow
1:33 PM 28.4 °F - 26.6 °F 93% 30.25 in 2.5 mi Calm Calm - 0.00 in Snow Light Snow
1:45 PM 28.4 °F - 26.6 °F 93% 30.25 in 4.0 mi Calm Calm - 0.00 in Snow Light Snow
1:56 PM 28.9 °F - 26.1 °F 89% 30.35 in 5.0 mi Calm Calm - 0.00 in Snow Light Snow
3:01 PM 28.4 °F - 24.8 °F 86% 30.25 in 1.8 mi Calm Calm - 0.01 in Snow Light Snow
3:13 PM 28.4 °F - 24.8 °F 86% 30.25 in 0.5 mi Calm Calm - 0.01 in Fog , Snow Snow
3:33 PM 28.4 °F - 26.6 °F 93% 30.24 in 1.0 mi Calm Calm - 0.02 in Snow Light Snow
3:56 PM 28.0 °F - 26.1 °F 92% 30.32 in 0.8 mi Calm Calm - 0.03 in Snow Light Snow
4:06 PM 28.4 °F - 26.6 °F 93% 30.21 in 1.2 mi Calm Calm - 0.00 in Snow Light Snow
4:18 PM 28.4 °F - 26.6 °F 93% 30.23 in 2.0 mi Calm Calm - 0.01 in Snow Light Snow
4:31 PM 28.4 °F - 26.6 °F 93% 30.23 in 4.0 mi Calm Calm - 0.01 in Snow Light Snow
5:00 PM 28.4 °F - 26.6 °F 93% 30.23 in 2.5 mi Calm Calm - 0.00 in Rain Light Freezing Rain
5:19 PM 28.4 °F - 28.4 °F 100% 30.21 in 1.8 mi Calm Calm - 0.00 in Rain Light Freezing Rain
5:31 PM 28.4 °F - 28.4 °F 100% 30.21 in 2.5 mi Calm Calm - 0.01 in Rain Light Freezing Rain
5:40 PM 28.4 °F - 28.4 °F 100% 30.21 in 4.0 mi Calm Calm - 0.01 in Rain Light Freezing Rain
5:56 PM 28.9 °F - 28.0 °F 96% 30.32 in 3.0 mi Calm Calm - 0.01 in   Overcast
6:06 PM 30.2 °F - 28.4 °F 93% 30.21 in 2.5 mi Calm Calm - N/A   Overcast
6:22 PM 28.4 °F - 28.4 °F 100% 30.21 in 1.8 mi Calm Calm - N/A   Overcast
6:35 PM 30.2 °F - 28.4 °F 93% 30.21 in 2.0 mi Calm Calm - N/A   Overcast
6:50 PM 30.2 °F - 28.4 °F 93% 30.20 in 2.0 mi Calm Calm - 0.00 in Rain Light Freezing Rain
6:56 PM 30.0 °F - 28.0 °F 92% 30.32 in 2.5 mi Calm Calm - 0.00 in Rain Light Freezing Rain
7:12 PM 30.2 °F - 28.4 °F 93% 30.20 in 3.0 mi Calm Calm - 0.00 in Rain Light Freezing Rain
7:31 PM 30.2 °F 26.7 °F 28.4 °F 93% 30.20 in 2.5 mi Variable 3.5 mph - 0.01 in Rain Light Freezing Rain
7:47 PM 30.2 °F - 28.4 °F 93% 30.20 in 4.0 mi Calm Calm - 0.01 in Rain Light Freezing Rain
7:56 PM 30.0 °F - 28.9 °F 96% 30.30 in 3.0 mi Calm Calm - 0.01 in Rain Light Freezing Rain
8:09 PM 30.2 °F - 30.2 °F 100% 30.18 in 2.5 mi Calm Calm - 0.01 in Rain Light Freezing Rain
8:22 PM 30.2 °F - 30.2 °F 100% 30.18 in 4.0 mi Calm Calm - 0.01 in Rain Light Freezing Rain
8:56 PM 32.0 °F - 30.9 °F 96% 30.28 in 1.8 mi Calm Calm - 0.03 in Rain Light Freezing Rain
9:19 PM 32.0 °F - 30.2 °F 93% 30.18 in 2.0 mi Calm Calm - 0.03 in Rain Light Freezing Rain
9:40 PM 32.0 °F - 30.2 °F 93% 30.18 in 3.0 mi Calm Calm - 0.04 in Rain Light Freezing Rain
9:56 PM 32.0 °F - 30.9 °F 96% 30.27 in 9.0 mi Calm Calm - 0.04 in Rain Light Freezing Rain
10:10 PM 32.0 °F - 30.2 °F 93% 30.17 in 10.0 mi Calm Calm - 0.00 in   Overcast
10:56 PM 32.0 °F - 30.9 °F 96% 30.26 in 2.5 mi Calm Calm - 0.00 in   Overcast
11:10 PM 32.0 °F - 32.0 °F 100% 30.18 in 3.0 mi Calm Calm - 0.01 in   Overcast
11:40 PM 33.8 °F - 32.0 °F 93% 30.19 in 2.0 mi Calm Calm - 0.02 in Rain Light Rain
11:56 PM 33.1 °F - 32.0 °F 96% 30.26 in 5.0 mi Calm Calm - 0.03 in Rain Light Rain